�������l�o���
Date,Time,MP-1(��Sv/h),MP-2(��Sv/h),MP-3(��Sv/h),MP-4(��Sv/h),MP-5(��Sv/h),MP-6(��Sv/h),MP-7(��Sv/h),MP-8(��Sv/h),����,����(m/s),���J
2019/04/12,00:00,0.741,1.078,0.749,1.383,0.993,0.427,0.762,0.724,�쐼,2.2,��
2019/04/12,00:10,0.740,1.080,0.748,1.384,0.996,0.426,0.761,0.723,�쐼,2.0,��
2019/04/12,00:20,0.742,1.081,0.749,1.380,0.992,0.428,0.762,0.723,��,1.5,��
2019/04/12,00:30,0.740,1.081,0.749,1.383,0.994,0.427,0.761,0.722,��,2.0,��
2019/04/12,00:40,0.740,1.077,0.748,1.383,0.992,0.427,0.761,0.723,�k��,2.3,��
2019/04/12,00:50,0.740,1.077,0.748,1.381,0.991,0.427,0.761,0.722,�k��,4.1,��
2019/04/12,01:00,0.741,1.080,0.747,1.382,0.992,0.426,0.761,0.723,�k��,3.4,��
2019/04/12,01:10,0.742,1.083,0.749,1.383,0.994,0.429,0.762,0.724,�k��,3.0,��
2019/04/12,01:20,0.740,1.078,0.747,1.382,0.993,0.427,0.762,0.722,�k��,3.4,��
2019/04/12,01:30,0.740,1.080,0.747,1.381,0.993,0.428,0.761,0.725,�k��,3.1,��
2019/04/12,01:40,0.741,1.076,0.747,1.380,0.995,0.428,0.762,0.723,�k��,3.0,��
2019/04/12,01:50,0.742,1.079,0.749,1.383,0.993,0.427,0.761,0.725,���k��,1.1,��
2019/04/12,02:00,0.739,1.079,0.746,1.383,0.993,0.429,0.760,0.722,�k��,1.2,��
2019/04/12,02:10,0.740,1.078,0.748,1.381,0.995,0.427,0.763,0.723,�k��,2.0,��
2019/04/12,02:20,0.740,1.080,0.748,1.379,0.992,0.428,0.760,0.724,���k��,2.2,��
2019/04/12,02:30,0.742,1.078,0.749,1.383,0.992,0.427,0.761,0.724,���k��,1.7,��
2019/04/12,02:40,0.741,1.078,0.747,1.380,0.990,0.426,0.761,0.724,���k��,2.2,��
2019/04/12,02:50,0.740,1.078,0.748,1.381,0.994,0.428,0.761,0.723,���k��,2.3,��
2019/04/12,03:00,0.740,1.076,0.750,1.383,0.994,0.428,0.760,0.724,���k��,2.6,��
2019/04/12,03:10,0.740,1.078,0.748,1.380,0.994,0.427,0.760,0.723,�k��,3.3,��
2019/04/12,03:20,0.740,1.080,0.748,1.381,0.992,0.428,0.761,0.723,�k��,4.4,��
2019/04/12,03:30,0.741,1.077,0.749,1.381,0.993,0.428,0.761,0.725,�k��,4.0,��
2019/04/12,03:40,0.742,1.082,0.748,1.381,0.994,0.425,0.760,0.724,�k��,5.1,��
2019/04/12,03:50,0.740,1.079,0.750,1.384,0.992,0.427,0.759,0.724,���k��,5.5,��
2019/04/12,04:00,0.740,1.079,0.748,1.382,0.993,0.426,0.761,0.722,��,3.2,��
2019/04/12,04:10,0.742,1.078,0.749,1.380,0.994,0.425,0.761,0.724,���k��,4.3,��
2019/04/12,04:20,0.741,1.077,0.749,1.380,0.992,0.427,0.763,0.725,���k��,5.0,��
2019/04/12,04:30,0.741,1.078,0.747,1.381,0.993,0.426,0.761,0.724,���k��,4.6,��
2019/04/12,04:40,0.740,1.077,0.749,1.380,0.990,0.426,0.761,0.722,���k��,4.5,��
2019/04/12,04:50,0.740,1.079,0.748,1.381,0.993,0.427,0.761,0.722,���k��,4.7,��
2019/04/12,05:00,0.740,1.079,0.749,1.384,0.992,0.427,0.760,0.723,���k��,4.2,��
2019/04/12,05:10,0.740,1.077,0.749,1.380,0.993,0.426,0.761,0.725,��,2.8,��
2019/04/12,05:20,0.740,1.078,0.750,1.383,0.992,0.428,0.761,0.723,���k��,2.8,��
2019/04/12,05:30,0.742,1.081,0.747,1.381,0.994,0.428,0.760,0.725,���k��,2.6,��
2019/04/12,05:40,0.740,1.079,0.748,1.380,0.992,0.425,0.761,0.723,��,2.5,��
2019/04/12,05:50,0.740,1.078,0.748,1.382,0.995,0.429,0.762,0.725,���k��,2.5,��
2019/04/12,06:00,0.741,1.079,0.747,1.382,0.995,0.427,0.760,0.724,���k��,3.3,��
2019/04/12,06:10,0.743,1.078,0.751,1.382,0.992,0.428,0.760,0.723,���k��,2.6,��
2019/04/12,06:20,0.740,1.077,0.747,1.383,0.995,0.427,0.761,0.725,���k��,2.6,��
2019/04/12,06:30,0.740,1.082,0.748,1.385,0.993,0.428,0.762,0.725,���k��,2.6,��
2019/04/12,06:40,0.741,1.081,0.750,1.382,0.994,0.428,0.763,0.724,���k��,2.8,��
2019/04/12,06:50,0.740,1.080,0.748,1.383,0.994,0.427,0.763,0.724,���k��,1.4,��
2019/04/12,07:00,0.743,1.080,0.749,1.381,0.994,0.427,0.762,0.725,���k��,1.7,��
2019/04/12,07:10,0.745,1.081,0.750,1.383,0.996,0.431,0.762,0.725,���k��,1.7,��
2019/04/12,07:20,0.742,1.080,0.750,1.383,0.995,0.429,0.764,0.727,���k��,1.4,��
2019/04/12,07:30,0.742,1.081,0.750,1.384,0.997,0.429,0.764,0.725,-,CALM,��
2019/04/12,07:40,0.743,1.082,0.749,1.386,0.996,0.430,0.765,0.724,��,0.8,��
2019/04/12,07:50,0.745,1.081,0.752,1.385,0.997,0.427,0.765,0.725,-,CALM,��
2019/04/12,08:00,0.744,1.082,0.752,1.384,0.996,0.427,0.764,0.725,�쓌,0.6,��
2019/04/12,08:10,0.743,1.081,0.751,1.385,0.996,0.428,0.764,0.725,��쐼,1.5,��
2019/04/12,08:20,0.745,1.083,0.752,1.384,0.997,0.427,0.762,0.726,��,0.9,��
2019/04/12,08:30,0.743,1.081,0.751,1.386,0.998,0.428,0.762,0.728,��쓌,1.7,��
2019/04/12,08:40,0.744,1.080,0.750,1.386,0.998,0.428,0.764,0.726,��쐼,0.6,��
2019/04/12,08:50,0.747,1.083,0.754,1.385,0.998,0.426,0.761,0.726,-,CALM,��
2019/04/12,09:00,0.745,1.080,0.751,1.388,0.998,0.428,0.763,0.724,�k��,2.6,��
2019/04/12,09:10,0.748,1.078,0.752,1.388,1.000,0.427,0.761,0.724,���k��,2.9,��
2019/04/12,09:20,0.747,1.080,0.753,1.386,1.003,0.428,0.762,0.724,�k��,2.8,��
2019/04/12,09:30,0.745,1.081,0.753,1.389,1.002,0.427,0.762,0.724,���쓌,3.0,��
2019/04/12,09:40,0.745,1.079,0.752,1.387,1.002,0.429,0.763,0.725,���쓌,2.9,��
2019/04/12,09:50,0.746,1.084,0.754,1.388,1.003,0.427,0.764,0.726,���쓌,3.3,��
2019/04/12,10:00,0.747,1.082,0.754,1.389,1.004,0.427,0.763,0.724,���쓌,3.8,��
2019/04/12,10:10,0.746,1.083,0.752,1.389,1.003,0.428,0.762,0.724,���쓌,3.6,��
2019/04/12,10:20,0.748,1.086,0.751,1.389,1.002,0.427,0.763,0.723,���쓌,2.9,��
2019/04/12,10:30,0.747,1.087,0.755,1.388,1.003,0.428,0.762,0.723,�쓌,2.6,��
2019/04/12,10:40,0.746,1.086,0.755,1.389,1.004,0.429,0.764,0.722,���쓌,3.6,��
2019/04/12,10:50,0.747,1.088,0.756,1.390,1.003,0.429,0.763,0.724,���k��,2.6,��
2019/04/12,11:00,0.747,1.087,0.756,1.390,1.003,0.427,0.763,0.724,���k��,3.5,��
2019/04/12,11:10,0.749,1.089,0.756,1.391,1.006,0.428,0.763,0.726,��,2.3,��
2019/04/12,11:20,0.749,1.088,0.754,1.393,1.006,0.428,0.762,0.722,���쓌,3.4,��
2019/04/12,11:30,0.747,1.090,0.753,1.393,1.002,0.429,0.763,0.724,���쓌,2.8,��
2019/04/12,11:40,0.747,1.090,0.755,1.389,1.005,0.427,0.763,0.724,��,2.8,��
2019/04/12,11:50,0.747,1.091,0.755,1.391,1.007,0.430,0.764,0.723,��,2.8,��
2019/04/12,12:00,0.748,1.091,0.755,1.390,1.004,0.430,0.763,0.724,���쓌,2.5,��
2019/04/12,12:10,0.747,1.089,0.755,1.391,1.006,0.428,0.764,0.722,���쓌,2.8,��
2019/04/12,12:20,0.748,1.092,0.754,1.391,1.008,0.428,0.763,0.726,�쓌,3.2,��
2019/04/12,12:30,0.749,1.094,0.755,1.393,1.008,0.428,0.763,0.723,��쓌,3.6,��
2019/04/12,12:40,0.748,1.094,0.757,1.394,1.009,0.431,0.764,0.725,��쓌,3.8,��
2019/04/12,12:50,0.749,1.092,0.756,1.393,1.006,0.429,0.764,0.723,�쓌,4.4,��
2019/04/12,13:00,0.749,1.092,0.756,1.393,1.008,0.429,0.765,0.723,��쓌,4.1,��
2019/04/12,13:10,0.748,1.092,0.756,1.394,1.007,0.429,0.764,0.724,��쓌,4.5,��
2019/04/12,13:20,0.748,1.092,0.756,1.393,1.008,0.430,0.764,0.723,��쓌,4.5,��
2019/04/12,13:30,0.751,1.093,0.758,1.392,1.009,0.431,0.764,0.725,��쓌,4.8,��
2019/04/12,13:40,0.749,1.094,0.757,1.391,1.008,0.431,0.765,0.725,��쓌,5.3,��
2019/04/12,13:50,0.749,1.095,0.754,1.393,1.002,0.431,0.766,0.726,��,3.9,��
2019/04/12,14:00,0.751,1.094,0.757,1.394,1.010,0.432,0.764,0.723,��쓌,4.2,��
2019/04/12,14:10,0.751,1.094,0.756,1.395,1.011,0.430,0.765,0.725,��쓌,3.8,��
2019/04/12,14:20,0.751,1.099,0.758,1.394,1.010,0.432,0.764,0.726,��쓌,4.1,��
2019/04/12,14:30,0.751,1.100,0.760,1.391,1.011,0.431,0.765,0.727,��쓌,5.1,��
2019/04/12,14:40,0.751,1.095,0.758,1.394,1.010,0.431,0.763,0.726,��,4.6,��
2019/04/12,14:50,0.752,1.099,0.756,1.394,1.010,0.432,0.763,0.724,��쓌,3.9,��
2019/04/12,15:00,0.753,1.102,0.758,1.396,1.010,0.433,0.764,0.724,��쓌,4.6,��
2019/04/12,15:10,0.751,1.103,0.759,1.396,1.013,0.431,0.765,0.726,��쓌,5.0,��
2019/04/12,15:20,0.754,1.105,0.759,1.396,1.011,0.434,0.765,0.727,��쓌,4.7,��
2019/04/12,15:30,0.753,1.102,0.759,1.395,1.013,0.432,0.764,0.726,��쓌,4.2,��
2019/04/12,15:40,0.752,1.103,0.758,1.396,1.011,0.432,0.765,0.726,��쓌,4.4,��
2019/04/12,15:50,0.754,1.103,0.758,1.399,1.015,0.433,0.766,0.728,��쓌,4.7,��
2019/04/12,16:00,0.752,1.104,0.758,1.396,1.011,0.433,0.765,0.728,��쓌,4.3,��
2019/04/12,16:10,0.752,1.106,0.758,1.396,1.013,0.433,0.764,0.729,��쓌,4.6,��
2019/04/12,16:20,0.754,1.106,0.759,1.395,1.013,0.434,0.764,0.728,��쓌,4.5,��
2019/04/12,16:30,0.754,1.103,0.760,1.398,1.014,0.434,0.766,0.728,��쓌,3.9,��
2019/04/12,16:40,0.752,1.104,0.758,1.396,1.013,0.433,0.764,0.727,��쓌,3.4,��
2019/04/12,16:50,0.752,1.106,0.758,1.396,1.012,0.433,0.766,0.728,��쓌,2.8,��
2019/04/12,17:00,0.751,1.105,0.760,1.397,1.014,0.433,0.766,0.728,��쓌,2.6,��
2019/04/12,17:10,0.752,1.106,0.758,1.395,1.012,0.433,0.764,0.728,��쓌,4.2,��
2019/04/12,17:20,0.751,1.107,0.760,1.396,1.012,0.434,0.764,0.728,��,4.0,��
2019/04/12,17:30,0.752,1.109,0.759,1.397,1.011,0.435,0.765,0.729,��,4.4,��
2019/04/12,17:40,0.750,1.104,0.760,1.397,1.013,0.433,0.765,0.727,��,4.4,��
2019/04/12,17:50,0.751,1.105,0.759,1.395,1.015,0.432,0.765,0.727,��,4.7,��
2019/04/12,18:00,0.751,1.106,0.758,1.396,1.016,0.434,0.766,0.727,��,5.1,��
2019/04/12,18:10,0.752,1.107,0.758,1.394,1.015,0.434,0.767,0.728,��쐼,4.6,��
2019/04/12,18:20,0.752,1.104,0.758,1.396,1.017,0.433,0.767,0.727,��,4.4,��
2019/04/12,18:30,0.752,1.106,0.759,1.398,1.013,0.435,0.766,0.727,��쐼,4.2,��
2019/04/12,18:40,0.750,1.106,0.759,1.396,1.013,0.433,0.766,0.728,��쐼,3.5,��
2019/04/12,18:50,0.752,1.105,0.757,1.398,1.014,0.434,0.769,0.727,��쐼,3.8,��
2019/04/12,19:00,0.750,1.105,0.758,1.395,1.015,0.432,0.766,0.728,��쐼,4.4,��
2019/04/12,19:10,0.751,1.108,0.757,1.398,1.012,0.432,0.766,0.727,��쐼,3.6,��
2019/04/12,19:20,0.751,1.105,0.759,1.397,1.014,0.433,0.767,0.727,��쐼,3.3,��
2019/04/12,19:30,0.752,1.105,0.759,1.395,1.014,0.433,0.767,0.728,��쐼,3.0,��
2019/04/12,19:40,0.752,1.104,0.757,1.399,1.014,0.431,0.765,0.727,�쐼,2.8,��
2019/04/12,19:50,0.751,1.106,0.757,1.396,1.015,0.432,0.766,0.726,�쐼,3.1,��
2019/04/12,20:00,0.751,1.106,0.756,1.395,1.015,0.431,0.767,0.728,�쐼,2.8,��
2019/04/12,20:10,0.753,1.103,0.758,1.393,1.012,0.432,0.765,0.728,��쐼,2.8,��
2019/04/12,20:20,0.752,1.100,0.758,1.397,1.016,0.432,0.766,0.727,�쐼,3.6,��
2019/04/12,20:30,0.751,1.103,0.758,1.396,1.013,0.431,0.769,0.727,�쐼,3.7,��
2019/04/12,20:40,0.751,1.100,0.759,1.398,1.014,0.430,0.766,0.728,���쐼,2.5,��
2019/04/12,20:50,0.751,1.103,0.759,1.397,1.014,0.431,0.767,0.728,��,2.0,��
2019/04/12,21:00,0.750,1.101,0.759,1.399,1.015,0.431,0.768,0.727,��,2.9,��
2019/04/12,21:10,0.752,1.102,0.758,1.395,1.014,0.433,0.766,0.727,��,2.2,��
2019/04/12,21:20,0.751,1.103,0.757,1.396,1.015,0.431,0.766,0.726,���k��,2.2,�L
2019/04/12,21:30,0.749,1.103,0.757,1.395,1.015,0.432,0.767,0.730,��,2.3,��
2019/04/12,21:40,0.752,1.103,0.757,1.396,1.015,0.432,0.765,0.725,��,2.2,��
2019/04/12,21:50,0.751,1.100,0.761,1.396,1.015,0.431,0.765,0.729,���k��,3.0,��
2019/04/12,22:00,0.752,1.102,0.758,1.396,1.014,0.433,0.765,0.727,���k��,3.4,��
2019/04/12,22:10,0.749,1.102,0.757,1.396,1.014,0.432,0.765,0.727,���k��,3.1,��
2019/04/12,22:20,0.751,1.101,0.757,1.397,1.015,0.432,0.766,0.727,���k��,4.6,��
2019/04/12,22:30,0.749,1.101,0.757,1.398,1.012,0.431,0.766,0.727,���k��,5.7,��
2019/04/12,22:40,0.750,1.100,0.759,1.395,1.014,0.431,0.766,0.727,���k��,5.6,��
2019/04/12,22:50,0.749,1.101,0.758,1.394,1.013,0.431,0.766,0.728,���k��,6.0,��
2019/04/12,23:00,0.751,1.100,0.757,1.396,1.013,0.431,0.766,0.727,���k��,5.6,��
2019/04/12,23:10,0.750,1.101,0.757,1.396,1.011,0.431,0.767,0.729,���k��,5.5,��
2019/04/12,23:20,0.750,1.101,0.758,1.396,1.014,0.430,0.766,0.726,���k��,5.1,��
2019/04/12,23:30,0.750,1.099,0.755,1.397,1.012,0.432,0.765,0.728,���k��,5.1,��
2019/04/12,23:40,0.750,1.102,0.758,1.394,1.015,0.432,0.767,0.726,���k��,5.4,��
2019/04/12,23:50,0.752,1.099,0.757,1.395,1.011,0.429,0.766,0.727,�k��,5.8,��
